Flag for Germany Weather past 2 weeks in Nuremberg, Bavaria, Germany

Now
54 °F

Clear.


Feels Like: 53 °F
Forecast: 46 / 64 °F
Wind: 3 mph from East

Location: Nuernberg

Current Time: Sep 4, 2015 at 2:21:31 AM

Latest Report: Sep 4, 2015 at 1:50 AM


Visibility: 4 mi

Pressure: 29.98 "Hg

Humidity: 94%

Dew point: 52 °F

Location of NurembergLocation

Historic Weather in Nuremberg — Graph

°F

Nuremberg temperature yesterday

Maximum temperature yesterday: 64 °F (at 3:50 PM)
Minimum temperature yesterday: 54 °F (at 1:50 AM)
Average temperature yesterday: 58 °F

Past Weeks' High & Low Weather Summary

 TemperatureHumidityPressure
High93 °F (Aug 30, 3:50 PM)100% (Aug 20, 5:20 AM)30.27 "Hg (Aug 20, 5:20 AM)
Low46 °F (Aug 22, 5:50 AM)26% (Aug 26, 3:20 PM)29.71 "Hg (Aug 24, 3:20 PM)
Average67 °F66%30.03 "Hg
* Reported Aug 20 1:20 AM — Sep 4 1:20 AM, Nuremberg, Weather by CustomWeather, © 2015

Note: Actual official high and low records may vary slightly from our data, if they occured in-between our weather recording intervals... More about our weather records

Advertising

Nuremberg weather history for previous 24 hours

 ConditionsComfort  
Time TempWeatherWind HumidityBarometerVisibility
1:20 AM
Fri, Sep 4
54 °FFog.2 mph94%29.98 "Hg1 mi
12:50 AM54 °FFog.1 mph94%29.98 "Hg2 mi
12:20 AM52 °FFog.3 mph100%29.98 "Hg1 mi
11:20 PM
Thu, Sep 3
55 °FClear.3 mph94%29.98 "Hg5 mi
10:50 PM55 °FClear.5 mph94%29.98 "Hg5 mi
10:20 PM55 °FFog.3 mph94%29.98 "HgN/A
9:50 PM55 °FFog.3 mph94%29.95 "HgN/A
9:20 PM57 °FClear.3 mph94%29.95 "Hg10 mi
8:50 PM57 °FPassing clouds.2 mph94%29.95 "HgN/A
8:20 PM59 °FScattered clouds.2 mph88%29.95 "HgN/A
7:50 PM59 °FScattered clouds.5 mph88%29.95 "HgN/A
7:20 PM61 °FBroken clouds.5 mph88%29.95 "HgN/A
6:50 PM61 °FPartly sunny.5 mph88%29.95 "HgN/A
6:20 PM63 °FSprinkles. Partly sunny.5 mph77%29.95 "HgN/A
5:20 PM64 °FBroken clouds.1 mph64%29.95 "HgN/A
4:50 PM64 °FBroken clouds.2 mph64%29.92 "HgN/A
4:20 PM64 °FPartly sunny.2 mph68%29.95 "HgN/A
3:50 PM64 °FPartly sunny.2 mph68%29.95 "HgN/A
3:20 PM63 °FBroken clouds.3 mph77%29.95 "HgN/A
2:50 PM61 °FBroken clouds.2 mph77%29.95 "HgN/A
2:20 PM61 °FBroken clouds.2 mph83%29.98 "HgN/A
1:50 PM59 °FPartly sunny.2 mph82%29.98 "HgN/A
1:20 PM59 °FLight rain. Partly sunny.3 mph88%29.98 "HgN/A
12:50 PM59 °FLight rain. Overcast.6 mph88%29.98 "Hg4 mi
12:20 PM59 °FLight rain. Partly sunny.7 mph88%29.98 "HgN/A
11:50 AM61 °FPartly sunny.6 mph77%29.98 "HgN/A
11:20 AM61 °FPartly sunny.3 mph83%29.98 "HgN/A
10:50 AM61 °FLight rain. Partly sunny.3 mph77%29.98 "HgN/A
10:20 AM61 °FPartly sunny.2 mph83%29.98 "HgN/A
9:50 AM59 °FBroken clouds.2 mph88%29.98 "HgN/A
9:20 AM59 °FPartly sunny.2 mph88%29.98 "Hg6 mi
8:50 AM57 °FPartly sunny.3 mph88%29.98 "Hg5 mi
8:20 AM55 °FPartly sunny.5 mph94%29.98 "Hg4 mi
7:50 AM55 °FPartly sunny.5 mph94%29.98 "Hg4 mi
7:20 AM55 °FPartly cloudy.3 mph94%29.95 "Hg5 mi
6:50 AM55 °FPassing clouds.3 mph88%29.95 "HgN/A
6:20 AM55 °FClear.3 mph94%29.95 "Hg10 mi
5:20 AM54 °FClear.6 mph94%29.98 "Hg10 mi
4:50 AM55 °FPassing clouds.3 mph88%29.98 "HgN/A
4:20 AM54 °FClear.2 mph94%29.98 "Hg10 mi
3:50 AM55 °FClear.3 mph94%29.98 "Hg10 mi
3:20 AM55 °FClear.6 mph94%29.98 "Hg10 mi
2:50 AM54 °FClear.6 mph94%29.98 "Hg10 mi
2:20 AM54 °FClear.5 mph94%29.98 "Hg10 mi
Weather by CustomWeather, © 2015

See weather overviewHow to use our weather pages